Presure
261 258 253 236 237 248 237 234 235 216 199 223 187 195 202 198 193 192 206 205 199 204 208 209 202 203 186 201 196 204 189 205 206 157 206 201 225 229 266 273 253 229 225 207
275 267 247 262 242 236 236 232 234 224 207 218 217 214 200 204 204 196 183 198 215 196 202 199 189 209 206 207 196 202 192 203 159 210 180 227 219 232 269 273 252 226 224 208
320 307 298 262 266 256 236 226 219 207 218 230 218 211 198 205 200 198 197 177 195 201 202 193 199 199 183 195 197 190 219 206 191 186 194 172 217 229 275 282 245 223 220 208
295 286 284 306 304 262 253 253 237 224 228 230 219 219 212 212 212 207 202 205 198 198 200 203 192 202 196 192 205 211 216 192 219 214 152 242 225 252 270 291 240 222 217 208
278 284 280 278 285 285 296 264 256 240 233 225 229 218 212 213 218 217 215 207 201 200 195 200 205 200 201 198 208 204 210 199 224 155 224 229 187 254 271 353 233 221 212 210
280 274 279 276 276 278 274 288 304 281 237 233 220 217 213 214 213 221 218 211 207 202 200 203 203 201 195 202 211 198 194 206 226 221 218 242 215 253 324 283 228 216 207 198
272 272 275 273 269 271 270 271 287 293 301 225 219 222 221 217 210 214 220 212 209 203 203 204 204 204 201 206 204 198 202 214 224 194 221 215 218 255 319 250 223 216 179 203
366 323 283 262 275 267 268 272 266 279 283 277 269 239 227 221 230 228 220 210 209 202 198 166 183 209 210 210 198 98 201 210 226 222 225 178 250 267 233 240 220 212 199 192
351 347 348 363 284 268 267 268 260 267 274 279 270 264 253 243 233 222 218 217 201 210 210 136 210 217 213 203 210 210 209 160 224 232 229 220 241 267 357 230 214 209 199 195
370 340 340 346 360 313 269 267 258 258 270 272 269 259 256 241 235 227 220 100 218 163 181 175 84 91 169 99 211 214 220 213 189 188 234 240 238 244 245 224 213 204 199 209
400 407 330 331 342 341 332 265 268 259 267 269 260 266 255 248 244 239 227 221 224 223 222 229 221 112 108 138 212 216 233 193 174 226 226 245 231 272 228 222 210 203 199 202
372 383 395 322 322 342 325 333 267 261 243 256 260 253 260 261 251 252 256 249 256 244 222 230 171 130 118 117 223 225 234 231 209 223 234 248 257 275 220 221 208 200 188 196
358 366 366 382 335 333 321 316 280 270 253 260 257 254 247 255 251 257 246 243 254 251 211 226 183 140 221 126 221 237 204 224 187 156 228 252 248 277 222 220 209 204 192 203
364 352 350 357 387 313 218 310 156 270 269 257 253 252 252 249 264 257 254 246 250 235 243 246 240 223 221 210 165 177 218 230 197 198 231 238 258 281 223 217 208 204 196 195
353 351 350 348 362 385 318 318 314 301 269 252 259 254 254 262 271 272 256 251 242 240 240 246 250 250 237 232 209 230 219 232 230 234 234 242 240 245 225 216 203 203 200 196
344 227 353 359 368 369 400 325 303 317 283 273 267 259 262 255 270 91 265 267 256 250 263 254 259 248 252 245 240 236 234 231 227 236 213 262 270 239 223 215 205 198 198 190
341 350 344 346 367 386 205 393 305 300 305 279 274 271 266 269 273 269 268 262 261 261 254 258 259 270 250 253 249 247 240 235 231 239 254 244 282 237 224 214 205 198 202 191
355 359 365 96 396 336 110 381 336 312 313 315 286 279 267 233 281 270 266 265 261 257 258 232 100 256 261 258 253 243 241 242 248 252 249 265 295 235 225 214 206 200 201 185
329 337 343 352 363 288 393 384 386 389 299 307 238 309 162 131 270 257 262 264 273 276 268 258 94 255 259 256 251 245 241 245 252 254 275 287 300 233 223 212 204 203 198 205
323 324 329 335 349 356 359 379 404 294 411 321 299 99 303 312 321 162 277 143 250 260 268 271 130 260 252 249 253 250 255 257 257 269 310 288 302 227 219 214 208 201 197 197
323 323 317 329 337 340 343 364 379 394 365 374 367 259 351 334 328 374 139 331 300 171 265 263 265 265 256 256 259 257 258 262 257 286 266 289 262 223 212 213 206 202 199 192
330 343 350 329 326 310 350 364 356 327 324 321 327 312 322 296 316 262 331 345 216 356 275 332 271 269 267 265 267 262 265 271 283 270 259 265 236 218 202 207 206 205 196 200
313 317 338 343 345 342 304 292 303 297 297 307 313 320 311 303 306 317 323 322 337 357 378 156 417 431 276 274 273 276 273 273 295 246 271 237 224 213 213 205 205 212 204 206
302 298 322 309 297 285 290 292 292 293 295 299 302 303 306 307 305 304 309 332 341 341 353 393 406 204 374 370 282 281 278 280 268 256 239 202 211 222 214 207 203 212 200 199
294 296 310 282 286 291 290 291 294 293 293 287 300 303 307 308 311 316 328 328 342 339 365 382 393 369 341 370 295 296 300 318 259 238 226 220 210 200 205 195 200 214 193 181
281 300 295 283 282 282 281 289 287 298 306 277 278 284 297 294 295 333 305 323 345 358 360 351 344 340 340 363 321 297 278 284 259 233 237 221 207 208 212 214 211 205 203 180
Wind_Speed
85 83 81 87 88 84 89 93 88 90 91 97 85 94 95 95 91 89 87 87 82 84 81 74 65 64 56 61 61 60 57 65 64 27 59 60 49 48 45 34 37 40 38 32
86 80 86 86 85 85 89 88 86 91 95 98 95 96 99 97 95 89 89 87 82 80 74 74 66 66 63 64 60 62 58 65 36 66 41 55 49 46 44 35 39 42 36 30
71 76 82 84 85 86 89 89 89 92 98 94 94 96 98 98 99 94 91 81 88 85 81 73 72 68 65 64 61 61 63 66 53 48 57 31 46 45 40 35 41 41 36 30
62 66 68 67 71 89 87 88 94 98 98 91 98 93 99 99 99 96 96 93 90 86 81 79 72 69 70 67 62 61 61 56 66 66 42 54 48 48 36 35 42 40 33 27
65 64 64 65 67 73 71 93 94 99 99 97 98 96 94 100 94 92 96 93 91 87 83 80 79 73 70 71 61 62 62 58 66 52 56 50 41 44 35 36 42 39 32 27
68 71 69 60 63 66 69 72 71 92 103 101 91 98 94 95 92 94 90 92 90 89 83 81 80 77 72 73 63 64 61 62 65 63 53 53 43 38 35 36 43 39 32 29
70 69 70 69 63 65 65 67 67 72 75 89 100 98 95 99 95 95 86 87 91 89 86 82 80 80 77 75 64 68 67 65 61 54 54 49 41 34 34 38 42 37 30 28
64 68 79 68 67 69 66 65 68 65 66 69 84 101 97 99 99 90 84 90 91 82 79 59 69 79 78 69 68 34 57 59 62 61 53 29 46 37 36 43 44 38 36 35
61 59 68 69 71 69 70 64 65 68 69 67 73 80 92 91 89 90 87 90 82 88 86 45 80 78 75 70 70 67 65 47 64 59 55 50 40 34 37 44 42 38 39 36
57 61 62 61 65 73 70 70 72 71 66 61 66 77 81 87 87 89 90 30 88 58 66 63 24 25 50 23 69 66 64 55 48 54 54 49 36 33 41 46 43 39 40 30
48 47 56 60 60 66 63 73 72 73 67 60 63 66 74 82 86 89 91 91 92 88 85 80 80 38 26 37 69 67 63 52 33 57 51 45 37 36 44 45 44 40 42 35
45 42 39 54 62 60 63 69 76 73 69 65 65 69 69 76 77 80 79 86 76 80 75 77 59 51 42 32 70 66 64 60 55 64 49 47 38 39 49 47 46 42 41 39
43 38 36 36 54 56 61 69 74 76 74 68 68 69 73 79 77 78 81 77 68 72 68 78 65 55 70 29 68 63 52 63 34 46 48 47 38 39 52 51 48 45 44 38
33 35 36 38 31 60 40 69 32 77 76 73 72 73 77 79 89 86 79 76 73 69 71 75 74 68 70 66 43 49 64 67 58 54 51 46 39 41 57 52 48 48 48 43
28 31 34 35 34 40 63 65 70 78 76 73 79 80 80 86 91 80 78 76 73 73 73 75 73 68 72 72 60 69 62 68 62 56 54 52 45 59 60 55 50 51 48 44
23 25 29 30 32 38 40 65 72 72 78 78 83 79 81 81 92 22 71 75 79 79 77 67 66 65 69 74 74 69 69 68 62 62 46 55 45 63 62 57 54 52 50 45
20 22 26 25 28 29 17 36 69 74 79 80 81 78 82 86 81 75 74 74 74 72 67 67 63 58 66 70 71 68 68 68 64 64 58 48 46 67 66 58 55 53 50 47
3 3 3 11 9 11 10 38 61 73 75 79 79 78 72 56 71 71 76 74 73 68 68 58 18 59 57 61 64 62 65 64 61 60 59 47 48 69 68 58 57 56 52 48
6 4 3 6 2 5 9 17 31 41 68 75 46 77 20 22 66 73 69 71 75 76 71 64 15 58 59 60 63 63 65 64 60 59 49 48 50 70 68 59 58 56 51 49
3 1 1 2 2 3 2 0 2 16 19 57 58 16 65 69 71 27 77 25 67 67 66 66 25 62 62 62 60 60 62 60 57 45 42 47 52 68 66 64 61 56 52 49
3 3 1 0 4 3 1 3 7 9 13 17 13 15 20 42 53 23 35 68 74 32 67 66 64 65 65 65 63 63 60 53 46 40 43 48 65 67 62 64 61 59 55 52
15 11 6 7 6 4 4 16 27 24 24 22 21 30 22 25 41 45 37 32 41 47 34 47 65 66 67 66 65 61 56 50 43 45 50 57 66 68 59 61 64 62 57 56
18 14 12 8 9 24 35 26 30 25 26 28 23 19 28 38 40 38 32 38 33 32 32 42 32 32 67 66 65 62 52 47 43 52 54 51 58 66 69 62 61 67 59 55
19 16 18 40 34 22 26 29 28 29 28 28 28 29 30 33 35 35 33 29 31 29 29 26 25 39 33 43 60 56 49 51 56 55 63 59 64 76 71 65 62 65 55 55
20 18 33 14 18 26 26 26 28 26 23 17 23 25 27 26 29 24 23 29 34 31 22 19 20 28 38 39 49 51 53 53 66 69 62 67 71 60 66 58 59 69 55 48
19 19 33 23 17 17 10 14 7 12 17 10 12 12 14 17 21 20 23 24 23 21 21 23 26 29 35 31 50 54 55 65 71 67 65 68 64 68 71 75 67 62 59 52
Wind_Direction
272 270 264 264 263 255 254 257 254 258 259 254 259 261 259 262 267 269 266 267 270 270 271 273 273 276 273 279 281 281 277 286 286 251 287 290 282 286 296 271 236 231 233 233
271 266 263 257 259 257 255 255 253 252 257 258 254 253 259 260 261 264 269 268 265 271 270 272 276 272 275 274 280 280 278 283 261 289 286 290 278 286 296 264 231 232 233 230
270 267 262 258 254 250 251 254 254 257 255 250 253 254 259 257 260 261 263 264 270 270 269 273 271 272 273 275 275 275 282 281 277 278 279 289 279 281 292 251 228 233 231 230
270 266 264 263 259 251 246 244 244 252 249 248 251 248 254 255 255 257 261 259 265 268 270 269 272 271 273 274 276 278 278 275 281 281 258 288 273 289 283 243 225 231 230 226
276 271 265 262 257 256 257 246 243 241 245 246 244 252 252 257 254 252 253 257 261 264 268 269 269 270 270 273 276 276 277 274 280 256 280 280 273 287 278 238 221 224 226 227
275 270 269 261 258 255 254 254 252 245 242 247 249 253 251 254 256 253 252 253 256 260 263 264 265 267 268 272 273 272 271 277 275 274 276 277 267 282 274 229 219 225 222 221
273 269 264 258 251 254 248 252 253 248 245 242 247 250 250 251 255 256 253 253 254 257 260 261 261 262 265 268 270 268 271 277 272 262 271 269 271 278 258 220 219 221 229 220
268 264 263 256 253 249 249 246 250 254 246 240 238 244 246 249 248 248 248 248 252 255 257 255 257 260 261 265 264 257 268 271 268 266 268 247 274 278 234 216 219 221 223 217
268 257 255 252 254 249 248 244 243 245 244 239 238 238 242 241 242 247 248 248 251 253 255 247 259 259 259 262 263 267 269 243 264 265 265 258 265 272 241 216 220 218 225 218
268 259 251 249 244 246 245 242 241 244 244 243 237 239 241 242 241 241 244 248 251 254 253 252 253 260 253 254 262 263 265 254 248 257 264 263 257 235 223 214 220 217 226 224
271 262 251 246 245 240 238 240 240 240 241 240 238 240 240 240 240 240 243 248 249 252 254 254 254 247 261 264 259 263 261 248 234 261 261 261 246 249 221 213 217 219 223 224
269 264 258 243 242 237 234 234 237 238 240 236 234 235 237 238 238 240 240 244 241 243 246 248 254 247 252 255 259 262 255 253 251 255 262 262 252 240 220 212 215 218 228 221
265 260 251 246 236 233 229 233 233 234 239 234 233 233 238 236 236 231 238 243 239 241 241 247 241 250 254 258 256 250 239 250 244 249 255 258 242 239 218 212 213 217 225 221
257 253 246 240 235 231 230 226 235 232 232 232 233 234 235 238 235 236 233 237 235 246 243 242 244 247 251 251 254 254 246 249 244 244 251 247 243 238 215 216 213 216 222 225
255 251 246 239 234 232 227 224 227 227 231 230 231 234 235 235 240 236 235 237 241 244 247 247 247 244 243 244 242 245 246 250 250 250 251 249 230 211 215 216 215 217 220 226
256 249 254 250 242 237 232 220 225 229 229 230 231 235 237 239 240 257 239 237 238 241 242 244 242 240 238 238 240 243 246 249 248 253 237 248 236 210 215 217 216 220 220 228
260 261 260 256 254 249 234 236 223 226 229 231 234 232 236 241 244 243 244 244 245 244 244 244 240 240 235 237 239 240 243 245 247 249 245 239 238 210 215 216 218 222 222 229
75 44 349 215 304 273 242 228 226 227 229 232 235 238 240 242 244 246 246 246 247 246 245 241 257 233 234 234 236 236 239 242 241 242 241 237 241 209 215 216 219 223 223 234
217 234 283 254 277 245 279 240 235 232 232 235 234 241 207 223 247 245 243 243 244 245 244 242 276 237 235 232 232 232 235 237 238 239 238 238 223 208 214 217 222 224 227 226
124 137 322 344 100 71 299 112 198 229 232 238 239 256 244 247 250 230 245 231 239 239 240 240 244 234 232 232 232 231 232 234 236 238 245 220 208 210 215 217 222 226 227 229
155 138 285 205 98 121 218 217 151 164 198 227 180 215 233 248 249 250 225 251 247 236 235 234 233 233 233 233 231 229 231 231 229 230 212 210 200 210 218 219 223 227 229 233
84 60 131 120 105 101 277 131 120 141 151 176 181 222 207 226 243 242 248 246 251 255 233 243 233 230 228 229 229 227 227 225 223 207 202 199 200 211 222 221 225 228 231 231
101 99 90 114 145 121 118 139 142 163 183 178 181 198 211 233 240 246 251 255 255 250 257 234 251 242 231 229 226 225 222 221 211 198 188 194 209 216 221 225 227 230 232 237
112 119 120 125 134 154 155 159 165 174 187 193 199 207 215 231 244 250 254 255 257 253 261 259 243 233 229 226 227 224 214 202 196 181 188 213 216 216 222 227 230 233 235 238
133 129 140 150 160 163 169 175 179 194 198 219 215 225 230 245 257 255 253 250 255 252 258 237 217 213 213 220 216 212 202 202 188 189 203 201 210 225 230 231 232 232 234 241
151 127 152 159 172 175 185 186 178 216 219 203 213 230 249 239 247 265 247 247 248 242 209 192 185 201 210 219 202 199 195 188 185 192 194 201 214 220 228 231 232 236 235 243